Tracking 19817 objects as of 19-Aug-2019
HD Live streaming from Space Station
objects crossing your sky now

CZ-2D DEB

Track CZ-2D DEB now!
10-day predictions


NORAD ID: 43426
Int'l Code: 2015-078B
Perigee: 498.5 km
Apogee: 785.5 km
Inclination: 97.4 °
Period: 97.4 minutes
Semi major axis: 7012 km
RCS: Unknown
Launch date: December 17, 2015
Source: People's Republic of China (PRC)
Launch site: Jiuquan Satellite Launch Center, China (JSC)

Note: This is SATELLITE DEBRIS
aabbcc
Your satellite tracking list
Your tracking list is empty




NASA's NSSDC Master Catalog

Two Line Element Set (TLE):
1 43426U 15078B   19229.71800224 +.00000629 +00000-0 +66454-4 0  9993
2 43426 097.4182 146.5893 0204625 119.6964 242.4789 14.78255361195129
Source of the keplerian elements: AFSPC